Regional Weather Roundup
Issued by NWS

Home | Current Version | Previous Version | Graphics & Text | Print | Product List | Glossary On
Versions: 1 2 3 4 5 6 7 8 9 10 11 12 13 14 15 16 17 18 19 20 21 22 23 24 25 26 27 28 29 30 31 32 33 34 35 36 37 38 39 40 41 42 43 44 45 46 47 48 49 50
000
ASUS45 KPSR 040710
RWRAZ

ARIZONA HOURLY REGIONAL WEATHER ROUNDUP
NATIONAL WEATHER SERVICE PHOENIX AZ
1200 AM MST FRI SEP 04 2015

NOTE: FAIR INDICATES FEW OR NO CLOUDS BELOW 12,000 FEET WITH NO
SIGNIFICANT WEATHER AND/OR OBSTRUCTIONS TO VISIBILITY.

AZZ001>003-036-040800-
NORTHWEST ARIZONA

CITY           SKY/WX    TMP DP  RH WIND       PRES   REMARKS
BULLHEAD CITY  CLEAR     90  57  33 SE24G37   29.71R
KINGMAN        CLEAR     74  56  53 SE15      29.91F
$$

AZZ004>008-015-016-018-040800-
NORTH CENTRAL ARIZONA

CITY           SKY/WX    TMP DP  RH WIND       PRES   REMARKS
GRAND CANYON   PTCLDY    58  46  64 SW6       30.16R
WILLIAMS       PTCLDY    57  52  82 SE12      30.21F
PRESCOTT       PTCLDY    62  59  90 SE8       30.07S
FLAGSTAFF      CLOUDY    57  54  89 SW12      30.20F
PAYSON         CLEAR     63  57  82 CALM      30.11S
PAGE           CLEAR     74  52  46 S10G24    29.96R
$$

AZZ009>014-017-040800-
NORTHEAST ARIZONA

CITY           SKY/WX    TMP DP  RH WIND       PRES   REMARKS
WINSLOW        MOCLDY    64  58  80 S7        30.08S
SAINT JOHNS    PTCLDY    59  56  89 CALM      30.13S
WINDOW ROCK    CLOUDY    62  47  57 SW8       30.19S
SHOW LOW       CLOUDY    59  54  82 S5        30.19S
$$

AZZ023-040800-
GREATER PHOENIX AREA

CITY           SKY/WX    TMP DP  RH WIND       PRES   REMARKS
PHOENIX        PTCLDY    78  66  66 E7        29.83F
BUCKEYE        CLEAR     75  64  69 E13       29.83F
LUKE AFB       PTCLDY    80  64  58 NE8       29.84S
DEER VALLEY    CLEAR     78  61  55 N5        29.86S
SCOTTSDALE     CLEAR     78  62  57 CALM      29.87F
MESA-GATEWAY   MOCLDY    75  63  64 CALM      29.88S
$$

AZZ027-028-040800-
SOUTHWEST MARICOPA COUNTY AND PINAL COUNTY

CITY           SKY/WX    TMP DP  RH WIND       PRES   REMARKS
CASA GRANDE    PTCLDY    73  64  73 E6        29.85S
GILA BEND      FAIR      79  62  56 NE6       29.79R
$$

AZZ503-504-507>509-040800-
SOUTHEAST ARIZONA

CITY           SKY/WX    TMP DP  RH WIND       PRES   REMARKS
TUCSON         CLEAR     71  64  78 E6        29.96S
DAVIS-MONTHAN  CLEAR     69  66  89 E2        29.94F
NOGALES        PTCLDY    63  60  90 E5        30.03S
SIERRA VISTA   MOCLDY    61  58  90 NW5       30.08S
DOUGLAS        MOCLDY    61  59  93 CALM      30.05F
SAFFORD        MOCLDY    71  60  68 CALM      29.97R
$$

AZZ020-021-025-026-031-040800-
SOUTHWEST ARIZONA

CITY           SKY/WX    TMP DP  RH WIND       PRES   REMARKS
YUMA           CLEAR     87  63  44 S18       29.71F
$$

CAZ031-033-041-043-047-048-061-040800-
SOUTHERN CALIFORNIA

CITY           SKY/WX    TMP DP  RH WIND       PRES   REMARKS
DOWNTOWN L.A.  CLEAR     67  56  67 CALM      29.86S
L.A. AIRPORT   MOCLDY    68  57  68 VRB3      29.87S
SAN DIEGO      MOCLDY    70  58  65 CALM      29.89S
BURBANK        CLOUDY    67  56  67 S5        29.87S
ONTARIO        CLEAR     64  57  78 W6        29.87F
RIVERSIDE      CLEAR     65  57  75 NW3       29.88S
PALM SPRINGS   CLEAR     83  48  29 N9        29.73S
EL CENTRO NAS  CLEAR     87  73  62 SE9       29.71S
IMPERIAL       CLEAR     89  76  65 SE16      29.69S HX 100
BLYTHE         CLEAR     87  66  49 S18G28    29.74S
NEEDLES        MOCLDY    89  55  31 S14       29.74R
$$

NVZ020-UTZ003-040800-
SOUTHERN NEVADA-UTAH

CITY           SKY/WX    TMP DP  RH WIND       PRES   REMARKS
LAS VEGAS      CLEAR     85  32  15 S5        29.72R
SALT LAKE CITY PTCLDY    76  36  23 S15       29.79R
$$

NMZ009-TXZ055-040800-
NEW MEXICO-WEST TEXAS

CITY           SKY/WX    TMP DP  RH WIND       PRES   REMARKS
ALBUQUERQUE    MOCLDY    72  49  44 SE6       30.09F
EL PASO        CLOUDY    81  54  39 W7        29.99S
$$


........................KEY........................
SKY/WX - SKY CONDITION/WEATHER
TMP    - TEMPERATURE IN FAHRENHEIT
DP     - DEW POINT IN FAHRENHEIT
RH     - RELATIVE HUMIDITY IN PERCENT
WIND   - DIRECTION AND SPEED IN MILES PER HOUR (MPH)
VRB    - VARIABLE WIND DIRECTION
PRES   - MEAN SEA LEVEL PRESSURE IN INCHES OF MERCURY
         F - FALLING PRESSURE   R - RISING PRESSURE
         S - STEADY PRESSURE
VSB    - VISIBILITY IN MILES
HX     - HEAT INDEX IN FAHRENHEIT
WCI    - WIND CHILL INDEX IN FAHRENHEIT
TC     - TEMPERATURE IN CELSIUS WHICH IS ALSO KNOWN AS
         TEMPERATURE IN CENTIGRADE
AFB    - AIR FORCE BASE
         LUKE AFB IS LUKE AIR FORCE BASE
         DAVIS-MONTHAN IS DAVIS-MONTHAN AIR FORCE BASE
NAS    - NAVAL AIR STATION
         EL CENTRO NAS IS EL CENTRO NAVAL AIR STATION
N/A    - NOT AVAILABLE



USA.gov is the U.S. government's official web portal to all federal, state and local government web resources and services.